TimeMST,TemperatureF,Dew PointF,Humidity,Sea Level PressureIn,VisibilityMPH,Wind Direction,Wind SpeedMPH,Gust SpeedMPH,PrecipitationIn,Events,Conditions,WindDirDegrees,DateUTC
12:56 AM,28.9,24.1,82,29.78,10.0,West,10.4,-,N/A,,Mostly Cloudy,260,2013-02-13 07:56:00
1:56 AM,33.1,26.1,75,29.75,10.0,WSW,12.7,-,N/A,,Overcast,240,2013-02-13 08:56:00
2:56 AM,33.1,26.1,75,29.71,10.0,SW,13.8,-,N/A,,Scattered Clouds,230,2013-02-13 09:56:00
3:56 AM,34.0,27.0,75,29.68,10.0,WSW,17.3,-,N/A,,Overcast,240,2013-02-13 10:56:00
4:56 AM,33.1,27.0,78,29.67,10.0,WSW,13.8,-,N/A,,Mostly Cloudy,250,2013-02-13 11:56:00
5:56 AM,34.0,27.0,75,29.65,10.0,West,12.7,-,N/A,,Overcast,260,2013-02-13 12:56:00
6:56 AM,35.1,28.9,78,29.64,10.0,West,11.5,-,0.00,,Overcast,270,2013-02-13 13:56:00
7:56 AM,37.0,28.9,73,29.63,10.0,West,20.7,-,0.00,,Mostly Cloudy,280,2013-02-13 14:56:00
8:15 AM,37.4,30.2,75,29.57,10.0,WNW,21.9,28.8,N/A,,Mostly Cloudy,290,2013-02-13 15:15:00
8:56 AM,37.0,33.1,86,29.64,10.0,WNW,19.6,-,N/A,,Overcast,290,2013-02-13 15:56:00
9:14 AM,35.6,32.0,87,29.58,10.0,WNW,23.0,27.6,N/A,,Mostly Cloudy,290,2013-02-13 16:14:00
9:23 AM,37.4,32.0,81,29.58,10.0,WNW,24.2,31.1,N/A,,Mostly Cloudy,290,2013-02-13 16:23:00
9:56 AM,39.0,30.9,73,29.64,10.0,WNW,25.3,32.2,N/A,,Partly Cloudy,290,2013-02-13 16:56:00
10:56 AM,39.9,30.9,70,29.66,10.0,WNW,27.6,35.7,N/A,,Clear,290,2013-02-13 17:56:00
11:56 AM,41.0,30.9,67,29.67,10.0,WNW,25.3,33.4,N/A,,Clear,290,2013-02-13 18:56:00
12:56 PM,37.9,30.0,73,29.69,10.0,WNW,23.0,33.4,0.00,Snow,Light Snow,290,2013-02-13 19:56:00
1:56 PM,39.9,28.9,65,29.69,10.0,WNW,26.5,38.0,0.00,,Clear,300,2013-02-13 20:56:00
2:56 PM,39.0,30.0,70,29.72,10.0,WNW,19.6,28.8,N/A,,Partly Cloudy,300,2013-02-13 21:56:00
3:56 PM,37.0,28.9,73,29.74,10.0,WNW,20.7,27.6,N/A,,Clear,300,2013-02-13 22:56:00
4:14 PM,37.4,28.4,70,29.68,10.0,WNW,20.7,27.6,N/A,,Mostly Cloudy,300,2013-02-13 23:14:00
4:56 PM,36.0,30.0,79,29.77,10.0,NW,20.7,26.5,N/A,,Overcast,310,2013-02-13 23:56:00
5:56 PM,35.1,30.0,82,29.80,10.0,WNW,18.4,24.2,0.00,,Overcast,300,2013-02-14 00:56:00
6:56 PM,34.0,30.0,85,29.82,10.0,WNW,16.1,25.3,N/A,,Overcast,300,2013-02-14 01:56:00
7:25 PM,33.8,30.2,87,29.76,10.0,WNW,13.8,-,N/A,,Overcast,290,2013-02-14 02:25:00
7:48 PM,33.8,30.2,87,29.77,10.0,WNW,18.4,-,N/A,,Overcast,300,2013-02-14 02:48:00
7:56 PM,33.1,28.9,85,29.81,10.0,WNW,15.0,21.9,N/A,,Mostly Cloudy,290,2013-02-14 02:56:00
8:04 PM,33.8,28.4,81,29.75,10.0,WNW,19.6,24.2,N/A,,Mostly Cloudy,300,2013-02-14 03:04:00
8:54 PM,33.8,28.4,81,29.76,10.0,WNW,23.0,31.1,N/A,,Scattered Clouds,300,2013-02-14 03:54:00
8:56 PM,33.1,28.0,82,29.83,10.0,WNW,21.9,31.1,N/A,,Scattered Clouds,300,2013-02-14 03:56:00
9:56 PM,33.1,26.1,75,29.83,10.0,WNW,20.7,28.8,N/A,,Scattered Clouds,290,2013-02-14 04:56:00
10:03 PM,33.8,26.6,75,29.78,10.0,WNW,26.5,34.5,N/A,,Mostly Cloudy,290,2013-02-14 05:03:00
10:17 PM,30.2,21.2,69,29.79,10.0,WNW,28.8,41.4,N/A,,Mostly Cloudy,300,2013-02-14 05:17:00
10:56 PM,30.0,19.9,66,29.86,10.0,WNW,20.7,29.9,N/A,,Scattered Clouds,290,2013-02-14 05:56:00
11:56 PM,30.0,21.0,69,29.86,10.0,WNW,24.2,32.2,N/A,,Mostly Cloudy,290,2013-02-14 06:56:00